Location: Newark
(26.9047°N, 51.5475°E)
Time: 16:18:10
(UTC+00:00)

N. Korean satellite - Visible Passes

Search period start: 14 December 2019 00:00
Search period end: 24 December 2019 00:00
Orbit: 455 x 507 km, 97.2° (Epoch: 13 December)

Date Brightness Start Highest point End Pass type
(mag) Time Alt. Az. Time Alt. Az. Time Alt. Az.
14 Dec 8.5 01:50:31 10° NE 01:53:37 31° E 01:56:39 10° SSE visible
15 Dec 9.8 01:26:25 10° ENE 01:28:05 13° E 01:29:43 10° SE visible
16 Dec 6.6 02:32:43 10° N 02:36:03 48° WNW 02:39:20 10° SSW visible
16 Dec 9.8 14:34:35 10° SW 14:37:11 18° W 14:39:46 10° NW visible
17 Dec 7.0 02:07:15 10° NNE 02:10:39 60° E 02:14:00 10° S visible
17 Dec 8.2 14:08:11 10° S 14:11:42 42° W 14:15:12 10° NNW visible
18 Dec 9.0 01:42:23 10° NE 01:45:10 23° E 01:47:57 10° SSE visible
19 Dec 7.5 02:50:07 10° NNW 02:52:59 25° WNW 02:55:52 10° SW visible
19 Dec 10.5 14:54:01 10° W 14:54:18 10° W 14:54:35 10° W visible
20 Dec 6.3 02:24:14 10° N 02:27:39 67° WNW 02:31:01 10° SSW visible
20 Dec 9.4 14:25:48 10° SSW 14:28:46 23° W 14:31:44 10° NW visible
21 Dec 7.7 01:58:56 10° NNE 02:02:13 43° E 02:05:28 10° S visible
22 Dec 9.5 01:34:21 10° NE 01:36:42 17° E 01:39:04 10° SE visible
23 Dec 7.1 02:41:28 10° N 02:44:36 34° WNW 02:47:42 10° SW visible
23 Dec 10.0 14:44:03 10° SW 14:45:52 13° W 14:47:39 10° WNW visible
